Theta_e
316 317 318 316 314 315 317 317 322 323 324 322 322 321 321 321 321 321 321 322 322 321 323 323 322 321 323 324 325 325 326 328 330 330 330 331 332 330 330 329 328 328 327
316 317 318 316 317 314 315 318 321 321 324 322 321 324 323 324 324 322 322 322 324 323 322 324 323 324 326 326 325 326 326 330 329 330 331 330 330 329 328 328 331 330 329
316 318 318 317 317 317 313 318 319 319 321 324 323 325 325 325 323 321 325 326 324 325 326 326 326 327 327 328 327 327 330 329 329 329 330 329 329 329 329 330 331 331 331
316 317 317 317 315 318 314 317 319 317 321 325 325 323 326 324 325 325 326 327 327 325 325 325 325 327 327 327 328 327 328 329 330 330 329 330 329 329 328 330 331 330 329
316 317 317 318 316 320 316 318 321 317 323 325 325 325 326 326 327 323 323 325 325 325 325 325 327 327 327 327 323 329 329 330 330 330 329 329 329 329 329 329 330 329 328
316 317 317 317 318 322 320 318 320 318 319 323 324 323 322 323 326 327 324 324 324 324 326 326 326 326 327 328 327 329 330 329 329 329 328 329 329 329 328 327 328 328 328
316 317 318 317 319 320 320 321 318 318 317 318 323 322 321 321 325 326 327 326 327 327 326 322 324 326 327 327 326 326 327 328 328 329 329 329 329 328 327 326 327 328 326
317 317 317 318 318 320 319 322 321 318 318 316 317 319 321 321 324 326 326 327 327 324 327 324 326 328 326 326 326 326 327 328 328 329 329 329 328 327 326 326 326 327 325
317 317 317 318 318 320 319 321 322 319 320 318 316 316 319 320 322 323 325 329 327 327 327 328 328 328 328 327 327 328 327 327 328 328 328 328 328 327 327 327 326 326 324
317 317 317 318 318 321 320 321 323 321 318 319 317 316 315 318 319 321 324 325 322 323 327 327 327 328 328 328 328 329 329 328 328 328 328 327 327 326 326 327 326 326 325
317 317 316 318 317 320 321 320 322 319 312 317 316 316 315 314 318 318 319 320 322 324 323 326 327 327 327 327 327 327 327 329 329 328 328 327 326 325 326 327 326 321 317
319 318 316 317 318 320 320 320 321 318 310 309 311 314 315 316 315 317 317 318 318 320 320 322 325 326 325 326 328 325 322 324 327 327 327 326 326 326 326 324 322 311 306
318 318 316 317 318 320 319 320 322 318 316 313 312 309 310 315 313 318 318 317 321 319 319 316 315 318 321 324 325 327 322 316 317 316 316 314 315 316 314 313 311 317 312
318 318 316 317 318 318 319 319 319 318 317 315 316 312 309 313 313 315 317 318 320 320 320 318 317 315 314 315 316 317 317 317 317 316 316 317 318 318 319 319 319 318 317
317 318 316 316 318 319 319 319 318 317 317 316 318 315 310 310 314 315 315 316 320 319 319 317 316 317 317 317 317 317 318 318 319 319 319 319 320 319 319 318 317 318 318
319 318 317 316 317 319 319 318 318 318 317 316 318 317 311 309 313 315 317 319 320 320 319 321 320 318 316 315 315 317 318 319 319 319 319 319 319 319 318 317 315 315 316
320 318 319 318 315 318 319 318 316 317 316 315 318 318 311 309 310 313 315 315 316 319 320 318 318 316 313 312 312 312 312 312 313 313 313 311 312 312 310 309 309 309 308
322 321 319 319 317 316 318 318 317 317 315 313 318 318 312 309 311 314 313 314 315 314 314 314 314 312 309 308 306 305 305 305 305 304 304 304 304 304 305 305 306 307 307
327 325 322 320 319 317 316 318 317 317 316 314 315 316 312 308 311 311 312 312 311 310 309 309 307 306 305 305 306 306 306 306 307 309 311 312 313 313 313 313 312 312 311
326 326 324 320 320 319 317 318 317 318 317 316 313 313 311 308 309 310 310 309 309 308 307 307 307 307 309 310 312 313 314 315 315 316 316 316 316 316 315 315 315 315 314
327 326 324 324 323 320 318 317 317 316 318 317 316 312 311 308 309 310 309 309 309 309 309 310 310 310 311 313 314 315 316 316 316 316 316 316 315 315 315 314 314 314 313
326 326 325 323 323 321 319 317 317 316 317 318 317 315 311 310 309 311 311 310 310 311 312 313 313 314 314 314 314 314 314 314 313 313 313 314 314 313 313 313 313 312 312
326 327 327 325 322 322 320 318 317 317 317 319 319 317 314 312 310 311 313 313 313 313 314 314 314 314 314 314 314 314 314 314 313 313 313 313 313 312 312 311 311 310 310
326 326 326 325 324 323 322 320 318 317 317 318 319 319 318 315 314 312 312 315 315 315 315 315 315 314 315 315 315 315 315 314 314 314 314 314 314 315 316 316 314 313 312
326 326 327 326 326 325 324 322 320 318 317 318 319 320 319 319 318 316 315 313 314 314 315 316 316 317 317 318 317 316 316 316 315 315 315 317 320 325 327 326 323 320 319
326 326 326 326 327 327 325 323 322 320 318 317 318 319 320 320 319 321 322 320 319 317 318 319 319 319 319 320 320 320 320 320 319 320 322 323 325 326 326 325 324 323 322
Wind_Speed
11 7 3 1 7 9 8 13 13 16 16 11 10 10 8 8 6 5 4 6 3 5 7 10 14 13 15 18 21 25 26 29 32 35 31 24 29 27 27 31 29 28 26
15 10 6 1 4 9 5 10 10 13 17 12 10 12 13 10 7 9 11 10 13 12 7 8 12 13 20 22 24 28 32 34 34 38 37 30 33 24 24 28 23 24 23
18 13 9 3 1 8 6 8 9 12 14 12 9 13 14 12 9 12 12 12 13 17 15 16 13 12 22 25 27 30 34 36 35 35 23 28 18 31 25 24 23 24 24
19 14 11 7 2 6 7 6 10 11 10 13 11 14 15 19 15 14 18 19 19 20 21 15 8 17 25 26 29 34 35 38 43 32 34 20 40 28 24 27 24 21 20
23 18 13 8 4 6 6 4 8 9 8 12 14 18 15 16 15 14 9 11 14 14 14 16 20 17 18 27 26 29 37 39 38 37 33 21 30 34 34 31 26 23 21
25 17 12 10 7 6 4 2 6 7 6 8 12 14 16 15 15 15 12 4 6 12 10 11 19 17 16 22 25 21 25 29 28 26 29 33 36 35 40 36 25 21 17
28 22 19 15 11 7 5 1 2 4 4 5 8 12 12 13 13 12 12 7 10 13 14 17 17 18 18 22 27 24 18 22 23 25 28 32 32 37 38 36 30 23 18
30 24 19 16 13 9 7 6 2 2 3 4 7 10 9 9 13 14 14 14 17 18 15 15 17 18 19 19 21 17 13 18 16 24 21 23 29 27 27 30 28 24 18
32 26 21 18 15 12 7 5 5 2 2 2 3 6 6 6 8 12 13 19 19 15 19 15 15 17 21 20 19 17 21 14 15 16 20 23 20 22 24 23 22 25 21
32 26 22 20 17 14 9 7 6 3 4 2 1 4 4 5 6 7 10 14 15 15 14 14 13 13 14 12 16 12 13 17 18 19 21 19 22 19 21 20 20 17 17
35 28 23 19 18 15 13 9 7 5 4 5 2 1 3 5 6 6 8 9 10 11 14 15 15 16 16 19 21 22 21 21 21 21 20 22 25 21 19 18 18 10 14
33 27 24 21 20 18 15 10 9 6 4 4 4 3 3 4 8 8 8 7 10 11 11 14 13 13 13 14 16 20 19 20 22 22 22 22 22 20 18 15 12 12 14
32 28 26 25 23 20 17 11 9 9 6 4 4 4 5 5 8 9 8 10 11 12 11 13 13 14 14 13 14 14 16 21 23 23 22 21 20 19 18 17 16 12 13
35 31 28 28 25 21 19 14 10 12 9 6 4 3 5 8 9 12 10 10 10 11 11 10 12 13 14 13 13 14 15 17 16 14 13 14 12 11 13 12 11 12 13
36 36 31 30 29 24 21 16 11 11 11 8 5 2 4 11 12 12 11 11 10 9 10 10 11 10 8 8 8 10 10 11 12 12 11 11 9 7 7 6 6 10 14
40 40 35 30 30 29 23 19 15 12 12 10 8 5 5 10 15 13 13 11 11 10 9 9 9 9 8 9 9 9 10 10 9 8 8 8 9 8 7 8 9 10 13
34 43 40 34 31 31 26 23 17 14 13 12 11 9 6 10 14 15 14 13 11 11 10 9 7 5 5 6 8 9 9 9 9 9 8 7 6 6 6 6 6 8 9
28 40 43 37 32 30 28 23 20 16 14 13 13 12 9 11 13 14 15 15 14 12 12 11 9 7 6 7 7 8 9 9 9 8 7 7 6 5 5 5 5 5 4
24 29 42 41 35 32 30 28 25 20 17 15 15 13 11 12 12 13 14 14 14 14 11 10 9 8 8 8 10 10 10 10 9 8 8 6 6 4 2 0 2 4 5
29 23 32 43 39 34 33 31 29 26 23 18 16 14 13 12 12 12 12 12 12 12 12 12 12 11 11 11 11 11 10 8 7 6 4 3 1 2 4 6 8 9 11
25 26 26 33 40 39 37 36 33 32 27 21 18 17 16 14 13 13 13 13 13 13 12 12 11 11 10 9 7 6 6 5 5 5 5 5 8 10 12 13 15 17 18
19 23 23 28 34 41 40 41 39 31 31 27 23 20 19 17 17 17 16 15 15 14 14 13 13 12 11 11 10 9 7 8 9 9 10 11 14 18 20 22 22 23 24
16 17 18 23 29 34 43 45 39 34 33 33 29 26 23 21 20 21 21 20 19 18 17 16 15 15 14 13 12 12 12 13 15 16 17 18 21 25 28 28 28 29 29
13 15 22 25 29 31 39 47 41 38 35 36 34 31 29 27 25 24 25 24 24 23 22 21 20 19 18 17 16 15 16 19 20 21 22 24 26 28 29 30 29 28 28
16 17 20 22 26 29 34 43 47 42 42 37 38 36 35 32 29 28 28 29 27 25 23 21 20 18 19 15 18 21 22 24 27 27 28 28 27 27 29 23 20 21 24
12 16 23 25 24 27 36 40 44 47 47 43 41 42 40 39 36 33 31 30 28 26 25 25 27 27 27 27 27 29 31 29 27 24 27 28 27 26 20 16 16 16 22
Wind_Direction
202 197 193 27 34 27 23 15 20 22 17 14 23 41 31 19 347 12 23 352 263 195 179 191 195 195 190 189 176 178 165 160 170 168 168 173 168 159 150 153 154 160 158
196 198 196 194 39 35 38 18 22 19 22 24 33 42 26 32 27 54 66 58 74 138 155 172 183 181 158 162 169 170 163 164 170 156 146 134 148 154 162 165 163 163 164
199 197 197 195 93 45 51 33 36 19 25 28 45 54 33 47 58 71 80 72 95 84 84 124 131 156 153 160 162 165 159 165 170 164 147 135 140 151 163 166 160 154 153
201 201 195 196 160 64 56 53 36 20 35 36 48 74 47 57 72 88 79 82 78 78 77 109 150 141 161 150 164 171 174 171 158 162 154 160 160 147 114 146 147 150 147
198 198 195 190 153 101 64 76 33 31 55 54 54 60 64 61 62 76 81 74 77 78 78 62 81 126 133 152 158 148 166 170 155 162 164 161 159 156 146 129 135 143 146
195 198 185 187 162 161 90 66 31 26 54 60 55 55 53 60 76 82 101 98 101 87 62 75 99 106 112 134 148 150 156 161 174 171 172 169 163 163 158 149 144 146 140
192 192 188 191 184 178 168 180 0 15 46 61 65 60 57 56 68 74 67 105 105 134 117 110 109 117 119 129 128 121 148 155 182 186 177 177 171 168 166 158 152 151 147
192 194 192 191 189 180 170 219 260 16 45 61 66 59 70 65 68 66 74 92 126 113 129 139 104 112 129 130 133 137 123 121 154 178 184 185 172 170 176 174 165 153 153
192 195 191 193 193 187 167 213 235 315 190 47 29 43 77 91 78 78 72 79 118 118 124 127 139 125 121 123 146 142 151 126 113 154 162 169 171 178 186 183 190 183 162
192 195 192 195 195 193 193 225 238 276 217 235 25 39 93 132 108 96 94 94 90 99 103 110 105 116 124 144 133 140 147 157 143 147 156 159 169 167 173 182 185 198 188
191 195 192 193 198 200 205 225 236 248 214 220 229 51 111 141 140 121 114 105 114 117 112 112 111 114 103 106 115 115 113 123 136 147 155 162 168 170 172 175 182 182 191
190 194 192 189 197 201 198 209 218 224 199 191 199 212 172 142 163 143 131 112 109 107 106 118 125 124 119 115 124 122 122 124 133 137 143 145 149 155 159 163 170 175 181
195 194 193 194 198 199 197 196 210 205 201 186 179 191 188 165 165 161 144 141 128 138 116 114 127 131 125 124 122 126 126 128 130 132 135 134 141 144 145 145 152 154 164
198 195 196 200 201 201 202 198 200 205 204 203 203 192 190 179 171 177 167 152 150 139 138 140 129 126 123 120 120 125 130 135 137 134 137 132 128 135 143 149 164 183 178
206 201 199 204 203 203 203 202 197 204 211 210 217 216 200 188 182 177 175 167 154 148 146 135 134 137 138 130 126 128 133 133 136 135 135 140 144 145 151 160 176 197 208
210 208 205 204 205 206 205 202 198 201 211 210 210 215 210 189 186 184 182 178 178 170 162 154 142 134 138 144 151 160 165 168 167 169 171 180 190 198 202 202 199 201 216
210 215 207 207 206 204 203 203 198 200 208 204 207 216 208 188 185 192 195 195 194 192 189 190 200 209 195 182 185 189 188 186 187 194 201 206 206 214 218 216 216 213 213
213 218 218 211 211 207 203 203 200 201 203 202 206 212 208 191 187 189 193 199 204 207 210 211 216 217 204 187 176 167 159 156 156 157 155 157 157 158 165 174 181 195 213
233 227 221 217 211 207 201 202 201 202 202 203 202 209 213 199 192 189 192 195 199 202 202 195 182 167 156 153 148 142 141 141 140 139 139 137 130 134 139 59 322 307 304
240 229 224 222 214 211 205 201 203 203 202 201 200 202 209 208 196 185 182 179 177 175 173 170 165 159 153 147 142 139 137 138 143 149 147 151 190 260 277 285 289 290 286
244 232 224 222 220 210 207 205 204 206 206 196 198 202 204 204 197 187 181 175 173 174 173 171 171 168 166 163 163 169 171 178 199 207 229 255 271 279 282 283 285 286 287
222 224 222 223 220 212 209 209 207 207 207 202 201 203 203 202 198 195 187 185 186 185 182 180 180 180 186 194 202 211 217 228 239 244 256 269 277 279 280 281 283 286 286
208 216 225 220 218 211 211 211 210 206 206 207 204 208 205 204 202 202 197 197 197 196 195 198 202 205 210 217 225 235 241 248 258 264 268 271 279 283 285 288 289 289 291
196 221 218 217 218 215 212 217 212 207 208 208 206 208 211 209 207 208 207 206 206 207 209 216 224 229 230 236 237 241 249 258 268 278 287 290 288 290 291 291 291 291 292
221 217 222 223 223 224 219 215 217 211 209 211 209 208 212 214 212 214 215 215 216 219 223 231 237 237 240 224 244 258 267 275 280 284 287 289 290 292 297 295 285 288 291
236 236 226 224 223 226 223 218 218 215 212 211 213 213 211 214 218 216 220 225 230 233 236 242 249 256 264 272 274 277 280 280 285 284 288 292 294 301 297 279 281 286 303